Year,Month,Day,Hour,Minute,Value (Times are PST for temperature in C)
2015,07,25,00,00,16.60
2015,07,25,00,01,16.60
2015,07,25,00,02,16.60
2015,07,25,00,03,16.60
2015,07,25,00,04,16.60
2015,07,25,00,05,16.60
2015,07,25,00,06,16.60
2015,07,25,00,07,16.60
2015,07,25,00,08,16.60
2015,07,25,00,09,16.60
2015,07,25,00,10,16.60
2015,07,25,00,11,16.60
2015,07,25,00,12,16.60
2015,07,25,00,13,16.60
2015,07,25,00,14,16.60
2015,07,25,00,15,16.60
2015,07,25,00,16,16.60
2015,07,25,00,17,16.60
2015,07,25,00,18,16.70
2015,07,25,00,19,16.70
2015,07,25,00,20,16.70
2015,07,25,00,21,16.70
2015,07,25,00,22,16.70
2015,07,25,00,23,16.70
2015,07,25,00,24,16.70
2015,07,25,00,25,16.70
2015,07,25,00,26,16.70
2015,07,25,00,27,16.70
2015,07,25,00,28,16.70
2015,07,25,00,29,16.70
2015,07,25,00,30,16.70
2015,07,25,00,31,16.70
2015,07,25,00,32,16.70
2015,07,25,00,33,16.70
2015,07,25,00,34,16.70
2015,07,25,00,35,16.70
2015,07,25,00,36,16.70
2015,07,25,00,37,16.70
2015,07,25,00,38,16.70
2015,07,25,00,39,16.70
2015,07,25,00,40,16.70
2015,07,25,00,41,16.70
2015,07,25,00,42,16.70
2015,07,25,00,43,16.70
2015,07,25,00,44,16.70
2015,07,25,00,45,16.80
2015,07,25,00,46,16.80
2015,07,25,00,47,16.80
2015,07,25,00,48,16.80
2015,07,25,00,49,16.80
2015,07,25,00,50,16.80
2015,07,25,00,51,16.80
2015,07,25,00,52,16.80
2015,07,25,00,53,16.80
2015,07,25,00,54,16.80
2015,07,25,00,55,16.80
2015,07,25,00,56,16.80
2015,07,25,00,57,16.80
2015,07,25,00,58,16.80
2015,07,25,00,59,16.80
2015,07,25,01,00,16.80
2015,07,25,01,01,16.80
2015,07,25,01,02,16.80
2015,07,25,01,03,16.80
2015,07,25,01,04,16.80
2015,07,25,01,05,16.80
2015,07,25,01,06,16.80
2015,07,25,01,07,16.80
2015,07,25,01,08,16.80
2015,07,25,01,09,16.80
2015,07,25,01,10,16.80
2015,07,25,01,11,16.80
2015,07,25,01,12,16.70
2015,07,25,01,13,16.80
2015,07,25,01,14,16.80
2015,07,25,01,15,16.80
2015,07,25,01,16,16.80
2015,07,25,01,17,16.80
2015,07,25,01,18,16.80
2015,07,25,01,19,16.80
2015,07,25,01,20,16.80
2015,07,25,01,21,16.80
2015,07,25,01,22,16.70
2015,07,25,01,23,16.70
2015,07,25,01,24,16.70
2015,07,25,01,25,16.70
2015,07,25,01,26,16.70
2015,07,25,01,27,16.70
2015,07,25,01,28,16.70
2015,07,25,01,29,16.60
2015,07,25,01,30,16.60
2015,07,25,01,31,16.60
2015,07,25,01,32,16.50
2015,07,25,01,33,16.50
2015,07,25,01,34,16.40
2015,07,25,01,35,16.40
2015,07,25,01,36,16.40
2015,07,25,01,37,16.30
2015,07,25,01,38,16.30
2015,07,25,01,39,16.30
2015,07,25,01,40,16.30
2015,07,25,01,41,16.30
2015,07,25,01,42,16.20
2015,07,25,01,43,16.20
2015,07,25,01,44,16.20
2015,07,25,01,45,16.20
2015,07,25,01,46,16.20
2015,07,25,01,47,16.20
2015,07,25,01,48,16.10
2015,07,25,01,49,16.10
2015,07,25,01,50,16.10
2015,07,25,01,51,16.10
2015,07,25,01,52,16.10
2015,07,25,01,53,16.10
2015,07,25,01,54,16.10
2015,07,25,01,55,16.10
2015,07,25,01,56,16.10
2015,07,25,01,57,16.10
2015,07,25,01,58,16.10
2015,07,25,01,59,16.10
2015,07,25,02,00,16.10
2015,07,25,02,01,16.10
2015,07,25,02,02,16.10
2015,07,25,02,03,16.10
2015,07,25,02,04,16.10
2015,07,25,02,05,16.10
2015,07,25,02,06,16.10
2015,07,25,02,07,16.00
2015,07,25,02,08,16.00
2015,07,25,02,09,16.00
2015,07,25,02,10,16.00
2015,07,25,02,11,16.00
2015,07,25,02,12,16.00
2015,07,25,02,13,16.00
2015,07,25,02,14,16.00
2015,07,25,02,15,16.00
2015,07,25,02,16,16.00
2015,07,25,02,17,16.00
2015,07,25,02,18,16.00
2015,07,25,02,19,16.00
2015,07,25,02,20,16.00
2015,07,25,02,21,16.00
2015,07,25,02,22,16.00
2015,07,25,02,23,16.00
2015,07,25,02,24,16.00
2015,07,25,02,25,16.00
2015,07,25,02,26,15.90
2015,07,25,02,27,15.90
2015,07,25,02,28,15.90
2015,07,25,02,29,15.90
2015,07,25,02,30,15.90
2015,07,25,02,31,15.90
2015,07,25,02,32,15.90
2015,07,25,02,33,15.90
2015,07,25,02,34,15.90
2015,07,25,02,35,15.90
2015,07,25,02,36,15.90
2015,07,25,02,37,15.80
2015,07,25,02,38,15.80
2015,07,25,02,39,15.80
2015,07,25,02,40,15.80
2015,07,25,02,41,15.70
2015,07,25,02,42,15.70
2015,07,25,02,43,15.70
2015,07,25,02,44,15.60
2015,07,25,02,45,15.60
2015,07,25,02,46,15.60
2015,07,25,02,47,15.60
2015,07,25,02,48,15.60
2015,07,25,02,49,15.50
2015,07,25,02,50,15.50
2015,07,25,02,51,15.50
2015,07,25,02,52,15.50
2015,07,25,02,53,15.50
2015,07,25,02,54,15.50
2015,07,25,02,55,15.50
2015,07,25,02,56,15.50
2015,07,25,02,57,15.50
2015,07,25,02,58,15.50
2015,07,25,02,59,15.50
2015,07,25,03,00,15.40
2015,07,25,03,01,15.40
2015,07,25,03,02,15.40
2015,07,25,03,03,15.30
2015,07,25,03,04,15.30
2015,07,25,03,05,15.30
2015,07,25,03,06,15.30
2015,07,25,03,07,15.20
2015,07,25,03,08,15.20
2015,07,25,03,09,15.20
2015,07,25,03,10,15.20
2015,07,25,03,11,15.10
2015,07,25,03,12,15.10
2015,07,25,03,13,15.10
2015,07,25,03,14,15.00
2015,07,25,03,15,15.00
2015,07,25,03,16,15.00
2015,07,25,03,17,15.00
2015,07,25,03,18,15.00
2015,07,25,03,19,15.00
2015,07,25,03,20,15.00
2015,07,25,03,21,15.00
2015,07,25,03,22,15.00
2015,07,25,03,23,15.00
2015,07,25,03,24,15.00
2015,07,25,03,25,15.00
2015,07,25,03,26,14.90
2015,07,25,03,27,14.80
2015,07,25,03,28,14.80
2015,07,25,03,29,14.70
2015,07,25,03,30,14.70
2015,07,25,03,31,14.70
2015,07,25,03,32,14.60
2015,07,25,03,33,14.60
2015,07,25,03,34,14.60
2015,07,25,03,35,14.50
2015,07,25,03,36,14.50
2015,07,25,03,37,14.40
2015,07,25,03,38,14.40
2015,07,25,03,39,14.40
2015,07,25,03,40,14.40
2015,07,25,03,41,14.40
2015,07,25,03,42,14.40
2015,07,25,03,43,14.40
2015,07,25,03,44,14.40
2015,07,25,03,45,14.40
2015,07,25,03,46,14.40
2015,07,25,03,47,14.40
2015,07,25,03,48,14.40
2015,07,25,03,49,14.50
2015,07,25,03,50,14.60
2015,07,25,03,51,14.70
2015,07,25,03,52,14.80
2015,07,25,03,53,14.90
2015,07,25,03,54,15.00
2015,07,25,03,55,15.00
2015,07,25,03,56,15.00
2015,07,25,03,57,15.00
2015,07,25,03,58,15.00
2015,07,25,03,59,15.00
2015,07,25,04,00,15.00
2015,07,25,04,01,15.00
2015,07,25,04,02,15.00
2015,07,25,04,03,15.00
2015,07,25,04,04,15.00
2015,07,25,04,05,14.90
2015,07,25,04,06,14.80
2015,07,25,04,07,14.80
2015,07,25,04,08,14.70
2015,07,25,04,09,14.70
2015,07,25,04,10,14.60
2015,07,25,04,11,14.60
2015,07,25,04,12,14.50
2015,07,25,04,13,14.50
2015,07,25,04,14,14.50
2015,07,25,04,15,14.40
2015,07,25,04,16,14.40
2015,07,25,04,17,14.40
2015,07,25,04,18,14.40
2015,07,25,04,19,14.30
2015,07,25,04,20,14.30
2015,07,25,04,21,14.30
2015,07,25,04,22,14.30
2015,07,25,04,23,14.30
2015,07,25,04,24,14.30
2015,07,25,04,25,14.30
2015,07,25,04,26,14.30
2015,07,25,04,27,14.30
2015,07,25,04,28,14.30
2015,07,25,04,29,14.30
2015,07,25,04,30,14.40
2015,07,25,04,31,14.40
2015,07,25,04,32,14.40
2015,07,25,04,33,14.50
2015,07,25,04,34,14.50
2015,07,25,04,35,14.60
2015,07,25,04,36,14.60
2015,07,25,04,37,14.60
2015,07,25,04,38,14.60
2015,07,25,04,39,14.60
2015,07,25,04,40,14.60
2015,07,25,04,41,14.60
2015,07,25,04,42,14.60
2015,07,25,04,43,14.60
2015,07,25,04,44,14.60
2015,07,25,04,45,14.50
2015,07,25,04,46,14.50
2015,07,25,04,47,14.40
2015,07,25,04,48,14.40
2015,07,25,04,49,14.40
2015,07,25,04,50,14.40
2015,07,25,04,51,14.40
2015,07,25,04,52,14.40
2015,07,25,04,53,14.40
2015,07,25,04,54,14.40
2015,07,25,04,55,14.30
2015,07,25,04,56,14.30
2015,07,25,04,57,14.30
2015,07,25,04,58,14.40
2015,07,25,04,59,14.40
2015,07,25,05,00,14.40
2015,07,25,05,01,14.40
2015,07,25,05,02,14.50
2015,07,25,05,03,14.50
2015,07,25,05,04,14.50
2015,07,25,05,05,14.60
2015,07,25,05,06,14.60
2015,07,25,05,07,14.60
2015,07,25,05,08,14.60
2015,07,25,05,09,14.60
2015,07,25,05,10,14.60
2015,07,25,05,11,14.60
2015,07,25,05,12,14.60
2015,07,25,05,13,14.60
2015,07,25,05,14,14.50
2015,07,25,05,15,14.50
2015,07,25,05,16,14.50
2015,07,25,05,17,14.40
2015,07,25,05,18,14.40
2015,07,25,05,19,14.40
2015,07,25,05,20,14.40
2015,07,25,05,21,14.40
2015,07,25,05,22,14.40
2015,07,25,05,23,14.40
2015,07,25,05,24,14.40
2015,07,25,05,25,14.40
2015,07,25,05,26,14.40
2015,07,25,05,27,14.40
2015,07,25,05,28,14.40
2015,07,25,05,29,14.40
2015,07,25,05,30,14.40
2015,07,25,05,31,14.40
2015,07,25,05,32,14.40
2015,07,25,05,33,14.40
2015,07,25,05,34,14.40
2015,07,25,05,35,14.40
2015,07,25,05,36,14.30
2015,07,25,05,37,14.30
2015,07,25,05,38,14.30
2015,07,25,05,39,14.30
2015,07,25,05,40,14.30
2015,07,25,05,41,14.30
2015,07,25,05,42,14.20
2015,07,25,05,43,14.20
2015,07,25,05,44,14.20
2015,07,25,05,45,14.10
2015,07,25,05,46,14.10
2015,07,25,05,47,14.10
2015,07,25,05,48,14.10
2015,07,25,05,49,14.20
2015,07,25,05,50,14.20
2015,07,25,05,51,14.20
2015,07,25,05,52,14.20
2015,07,25,05,53,14.10
2015,07,25,05,54,14.10
2015,07,25,05,55,14.10
2015,07,25,05,56,14.00
2015,07,25,05,57,14.00
2015,07,25,05,58,14.00
2015,07,25,05,59,14.00
2015,07,25,06,00,14.00
2015,07,25,06,01,13.90
2015,07,25,06,02,13.90
2015,07,25,06,03,13.90
2015,07,25,06,04,13.90
2015,07,25,06,05,13.90
2015,07,25,06,06,13.90
2015,07,25,06,07,13.80
2015,07,25,06,08,13.80
2015,07,25,06,09,13.80
2015,07,25,06,10,13.80
2015,07,25,06,11,13.80
2015,07,25,06,12,13.80
2015,07,25,06,13,13.70
2015,07,25,06,14,13.70
2015,07,25,06,15,13.60
2015,07,25,06,16,13.60
2015,07,25,06,17,13.50
2015,07,25,06,18,13.50
2015,07,25,06,19,13.50
2015,07,25,06,20,13.50
2015,07,25,06,21,13.50
2015,07,25,06,22,13.50
2015,07,25,06,23,13.50
2015,07,25,06,24,13.50
2015,07,25,06,25,13.60
2015,07,25,06,26,13.60
2015,07,25,06,27,13.60
2015,07,25,06,28,13.60
2015,07,25,06,29,13.60
2015,07,25,06,30,13.50
2015,07,25,06,31,13.50
2015,07,25,06,32,13.40
2015,07,25,06,33,13.40
2015,07,25,06,34,13.30
2015,07,25,06,35,13.30
2015,07,25,06,36,13.20
2015,07,25,06,37,13.20
2015,07,25,06,38,13.10
2015,07,25,06,39,13.20
2015,07,25,06,40,13.20
2015,07,25,06,41,13.20
2015,07,25,06,42,13.20
2015,07,25,06,43,13.30
2015,07,25,06,44,13.40
2015,07,25,06,45,13.40
2015,07,25,06,46,13.40
2015,07,25,06,47,13.40
2015,07,25,06,48,13.30
2015,07,25,06,49,13.30
2015,07,25,06,50,13.40
2015,07,25,06,51,13.40
2015,07,25,06,52,13.40
2015,07,25,06,53,13.40
2015,07,25,06,54,13.40
2015,07,25,06,55,13.50
2015,07,25,06,56,13.50
2015,07,25,06,57,13.50
2015,07,25,06,58,13.50
2015,07,25,06,59,13.60
2015,07,25,07,00,13.50
2015,07,25,07,01,13.50
2015,07,25,07,02,13.40
2015,07,25,07,03,13.40
2015,07,25,07,04,13.40
2015,07,25,07,05,13.40
2015,07,25,07,06,13.50
2015,07,25,07,07,13.50
2015,07,25,07,08,13.60
2015,07,25,07,09,13.50
2015,07,25,07,10,13.50
2015,07,25,07,11,13.50
2015,07,25,07,12,13.60
2015,07,25,07,13,13.60
2015,07,25,07,14,13.70
2015,07,25,07,15,13.70
2015,07,25,07,16,13.70
2015,07,25,07,17,13.70
2015,07,25,07,18,13.70
2015,07,25,07,19,13.80
2015,07,25,07,20,13.80
2015,07,25,07,21,13.80
2015,07,25,07,22,13.90
2015,07,25,07,23,14.00
2015,07,25,07,24,14.00
2015,07,25,07,25,14.20
2015,07,25,07,26,14.30
2015,07,25,07,27,14.60
2015,07,25,07,28,14.80
2015,07,25,07,29,15.00
2015,07,25,07,30,15.00
2015,07,25,07,31,15.10
2015,07,25,07,32,15.30
2015,07,25,07,33,15.40
2015,07,25,07,34,15.50
2015,07,25,07,35,15.60
2015,07,25,07,36,15.70
2015,07,25,07,37,15.80
2015,07,25,07,38,15.90
2015,07,25,07,39,16.00
2015,07,25,07,40,16.10
2015,07,25,07,41,16.10
2015,07,25,07,42,16.10
2015,07,25,07,43,16.10
2015,07,25,07,44,16.20
2015,07,25,07,45,16.30
2015,07,25,07,46,16.30
2015,07,25,07,47,16.50
2015,07,25,07,48,16.60
2015,07,25,07,49,16.70
2015,07,25,07,50,16.80
2015,07,25,07,51,16.80
2015,07,25,07,52,16.80
2015,07,25,07,53,16.90
2015,07,25,07,54,16.90
2015,07,25,07,55,17.00
2015,07,25,07,56,17.00
2015,07,25,07,57,17.00
2015,07,25,07,58,17.00
2015,07,25,07,59,17.00
2015,07,25,08,00,17.00
2015,07,25,08,01,17.10
2015,07,25,08,02,17.00
2015,07,25,08,03,17.00
2015,07,25,08,04,17.00
2015,07,25,08,05,17.00
2015,07,25,08,06,17.10
2015,07,25,08,07,17.10
2015,07,25,08,08,17.20
2015,07,25,08,09,17.20
2015,07,25,08,10,17.20
2015,07,25,08,11,17.20
2015,07,25,08,12,17.30
2015,07,25,08,13,17.30
2015,07,25,08,14,17.40
2015,07,25,08,15,17.50
2015,07,25,08,16,17.50
2015,07,25,08,17,17.60
2015,07,25,08,18,17.60
2015,07,25,08,19,17.60
2015,07,25,08,20,17.60
2015,07,25,08,21,17.70
2015,07,25,08,22,17.70
2015,07,25,08,23,17.80
2015,07,25,08,24,17.80
2015,07,25,08,25,17.90
2015,07,25,08,26,17.90
2015,07,25,08,27,18.00
2015,07,25,08,28,18.10
2015,07,25,08,29,18.10
2015,07,25,08,30,18.20
2015,07,25,08,31,18.20
2015,07,25,08,32,18.30
2015,07,25,08,33,18.30
2015,07,25,08,34,18.30
2015,07,25,08,35,18.40
2015,07,25,08,36,18.40
2015,07,25,08,37,18.40
2015,07,25,08,38,18.50
2015,07,25,08,39,18.60
2015,07,25,08,40,18.60
2015,07,25,08,41,18.50
2015,07,25,08,42,18.40
2015,07,25,08,43,18.20
2015,07,25,08,44,17.90
2015,07,25,08,45,17.80
2015,07,25,08,46,17.60
2015,07,25,08,47,17.60
2015,07,25,08,48,17.60
2015,07,25,08,49,17.60
2015,07,25,08,50,17.70
2015,07,25,08,51,17.70
2015,07,25,08,52,17.70
2015,07,25,08,53,17.70
2015,07,25,08,54,17.70
2015,07,25,08,55,17.70
2015,07,25,08,56,17.70
2015,07,25,08,57,17.60
2015,07,25,08,58,17.60
2015,07,25,08,59,17.60
2015,07,25,09,00,17.60
2015,07,25,09,01,17.70
2015,07,25,09,02,17.80
2015,07,25,09,03,17.80
2015,07,25,09,04,17.80
2015,07,25,09,05,17.80
2015,07,25,09,06,17.80
2015,07,25,09,07,17.70
2015,07,25,09,08,17.70
2015,07,25,09,09,17.60
2015,07,25,09,10,17.60
2015,07,25,09,11,17.60
2015,07,25,09,12,17.60
2015,07,25,09,13,17.60
2015,07,25,09,14,17.50
2015,07,25,09,15,17.40
2015,07,25,09,16,17.40
2015,07,25,09,17,17.30
2015,07,25,09,18,17.30
2015,07,25,09,19,17.30
2015,07,25,09,20,17.30
2015,07,25,09,21,17.40
2015,07,25,09,22,17.40
2015,07,25,09,23,17.30
2015,07,25,09,24,17.30
2015,07,25,09,25,17.30
2015,07,25,09,26,17.20
2015,07,25,09,27,17.10
2015,07,25,09,28,17.00
2015,07,25,09,29,17.00
2015,07,25,09,30,16.90
2015,07,25,09,31,16.90
2015,07,25,09,32,16.90
2015,07,25,09,33,16.90
2015,07,25,09,34,16.90
2015,07,25,09,35,17.00
2015,07,25,09,36,17.00
2015,07,25,09,37,17.00
2015,07,25,09,38,17.00
2015,07,25,09,39,17.10
2015,07,25,09,40,17.10
2015,07,25,09,41,17.10
2015,07,25,09,42,17.10
2015,07,25,09,43,17.10
2015,07,25,09,44,17.20
2015,07,25,09,45,17.20
2015,07,25,09,46,17.10
2015,07,25,09,47,17.10
2015,07,25,09,48,17.10
2015,07,25,09,49,17.10
2015,07,25,09,50,17.20
2015,07,25,09,51,17.20
2015,07,25,09,52,17.20
2015,07,25,09,53,17.20
2015,07,25,09,54,17.30
2015,07,25,09,55,17.30
2015,07,25,09,56,17.30
2015,07,25,09,57,17.30
2015,07,25,09,58,17.30
2015,07,25,09,59,17.30
2015,07,25,10,00,17.40
2015,07,25,10,01,17.40
2015,07,25,10,02,17.50
2015,07,25,10,03,17.70
2015,07,25,10,04,17.70
2015,07,25,10,05,17.80
2015,07,25,10,06,17.80
2015,07,25,10,07,17.70
2015,07,25,10,08,17.60
2015,07,25,10,09,17.60
2015,07,25,10,10,17.60
2015,07,25,10,11,17.60
2015,07,25,10,12,17.60
2015,07,25,10,13,17.50
2015,07,25,10,14,17.50
2015,07,25,10,15,17.40
2015,07,25,10,16,17.30
2015,07,25,10,17,17.30
2015,07,25,10,18,17.30
2015,07,25,10,19,17.30
2015,07,25,10,20,17.20
2015,07,25,10,21,17.20
2015,07,25,10,22,17.20
2015,07,25,10,23,17.20
2015,07,25,10,24,17.20
2015,07,25,10,25,17.20
2015,07,25,10,26,17.20
2015,07,25,10,27,17.20
2015,07,25,10,28,17.20
2015,07,25,10,29,17.10
2015,07,25,10,30,17.10
2015,07,25,10,31,17.10
2015,07,25,10,32,17.10
2015,07,25,10,33,17.10
2015,07,25,10,34,17.10
2015,07,25,10,35,17.20
2015,07,25,10,36,17.20
2015,07,25,10,37,17.20
2015,07,25,10,38,17.30
2015,07,25,10,39,17.30
2015,07,25,10,40,17.30
2015,07,25,10,41,17.30
2015,07,25,10,42,17.30
2015,07,25,10,43,17.30
2015,07,25,10,44,17.30
2015,07,25,10,45,17.30
2015,07,25,10,46,17.30
2015,07,25,10,47,17.30
2015,07,25,10,48,17.30
2015,07,25,10,49,17.30
2015,07,25,10,50,17.30
2015,07,25,10,51,17.30
2015,07,25,10,52,17.40
2015,07,25,10,53,17.40
2015,07,25,10,54,17.40
2015,07,25,10,55,17.40
2015,07,25,10,56,17.40
2015,07,25,10,57,17.40
2015,07,25,10,58,17.40
2015,07,25,10,59,17.40
2015,07,25,11,00,17.50
2015,07,25,11,01,17.50
2015,07,25,11,02,17.60
2015,07,25,11,03,17.60
2015,07,25,11,04,17.60
2015,07,25,11,05,17.70
2015,07,25,11,06,17.70
2015,07,25,11,07,17.70
2015,07,25,11,08,17.80
2015,07,25,11,09,17.80
2015,07,25,11,10,17.80
2015,07,25,11,11,17.80
2015,07,25,11,12,17.80
2015,07,25,11,13,17.80
2015,07,25,11,14,17.80
2015,07,25,11,15,17.80
2015,07,25,11,16,17.80
2015,07,25,11,17,17.80
2015,07,25,11,18,17.80
2015,07,25,11,19,17.80
2015,07,25,11,20,17.90
2015,07,25,11,21,17.80
2015,07,25,11,22,17.80
2015,07,25,11,23,17.80
2015,07,25,11,24,17.90
2015,07,25,11,25,17.80
2015,07,25,11,26,17.90
2015,07,25,11,27,17.90
2015,07,25,11,28,17.90
2015,07,25,11,29,17.80
2015,07,25,11,30,17.80
2015,07,25,11,31,17.70
2015,07,25,11,32,17.70
2015,07,25,11,33,17.70
2015,07,25,11,34,17.70
2015,07,25,11,35,17.70
2015,07,25,11,36,17.70
2015,07,25,11,37,17.80
2015,07,25,11,38,17.80
2015,07,25,11,39,17.80
2015,07,25,11,40,17.80
2015,07,25,11,41,17.90
2015,07,25,11,42,17.90
2015,07,25,11,43,18.00
2015,07,25,11,44,18.00
2015,07,25,11,45,18.00
2015,07,25,11,46,18.00
2015,07,25,11,47,18.00
2015,07,25,11,48,18.00
2015,07,25,11,49,18.00
2015,07,25,11,50,18.10
2015,07,25,11,51,18.10
2015,07,25,11,52,18.10
2015,07,25,11,53,18.10
2015,07,25,11,54,18.10
2015,07,25,11,55,18.10
2015,07,25,11,56,18.20
2015,07,25,11,57,18.20
2015,07,25,11,58,18.30
2015,07,25,11,59,18.30
2015,07,25,12,00,18.40
2015,07,25,12,01,18.40
2015,07,25,12,02,18.30
2015,07,25,12,03,18.30
2015,07,25,12,04,18.30
2015,07,25,12,05,18.30
2015,07,25,12,06,18.40
2015,07,25,12,07,18.40
2015,07,25,12,08,18.40
2015,07,25,12,09,18.30
2015,07,25,12,10,18.30
2015,07,25,12,11,18.30
2015,07,25,12,12,18.20
2015,07,25,12,13,18.20
2015,07,25,12,14,18.20
2015,07,25,12,15,18.20
2015,07,25,12,16,18.10
2015,07,25,12,17,18.10
2015,07,25,12,18,18.10
2015,07,25,12,19,18.10
2015,07,25,12,20,18.20
2015,07,25,12,21,18.20
2015,07,25,12,22,18.20
2015,07,25,12,23,18.20
2015,07,25,12,24,18.20
2015,07,25,12,25,18.20
2015,07,25,12,26,18.20
2015,07,25,12,27,18.20
2015,07,25,12,28,18.20
2015,07,25,12,29,18.20
2015,07,25,12,30,18.20
2015,07,25,12,31,18.20
2015,07,25,12,32,18.20
2015,07,25,12,33,18.10
2015,07,25,12,34,18.10
2015,07,25,12,35,18.10
2015,07,25,12,36,18.00
2015,07,25,12,37,18.00
2015,07,25,12,38,18.00
2015,07,25,12,39,18.00
2015,07,25,12,40,18.10
2015,07,25,12,41,18.00
2015,07,25,12,42,18.10
2015,07,25,12,43,18.10
2015,07,25,12,44,18.20
2015,07,25,12,45,18.30
2015,07,25,12,46,18.30
2015,07,25,12,47,18.30
2015,07,25,12,48,18.30
2015,07,25,12,49,18.30
2015,07,25,12,50,18.30
2015,07,25,12,51,18.40
2015,07,25,12,52,18.40
2015,07,25,12,53,18.40
2015,07,25,12,54,18.40
2015,07,25,12,55,18.40
2015,07,25,12,56,18.40
2015,07,25,12,57,18.40
2015,07,25,12,58,18.40
2015,07,25,12,59,18.40
2015,07,25,13,00,18.30
2015,07,25,13,01,18.30
2015,07,25,13,02,18.30
2015,07,25,13,03,18.30
2015,07,25,13,04,18.20
2015,07,25,13,05,18.20
2015,07,25,13,06,18.20
2015,07,25,13,07,18.30
2015,07,25,13,08,18.30
2015,07,25,13,09,18.40
2015,07,25,13,10,18.40
2015,07,25,13,11,18.40
2015,07,25,13,12,18.40
2015,07,25,13,13,18.40
2015,07,25,13,14,18.40
2015,07,25,13,15,18.40
2015,07,25,13,16,18.50
2015,07,25,13,17,18.40
2015,07,25,13,18,18.40
2015,07,25,13,19,18.40
2015,07,25,13,20,18.30
2015,07,25,13,21,18.30
2015,07,25,13,22,18.30
2015,07,25,13,23,18.20
2015,07,25,13,24,18.20
2015,07,25,13,25,18.20
2015,07,25,13,26,18.30
2015,07,25,13,27,18.30
2015,07,25,13,28,18.30
2015,07,25,13,29,18.30
2015,07,25,13,30,18.30
2015,07,25,13,31,18.30
2015,07,25,13,32,18.20
2015,07,25,13,33,18.20
2015,07,25,13,34,18.20
2015,07,25,13,35,18.20
2015,07,25,13,36,18.20
2015,07,25,13,37,18.20
2015,07,25,13,38,18.30
2015,07,25,13,39,18.30
2015,07,25,13,40,18.40
2015,07,25,13,41,18.30
2015,07,25,13,42,18.30
2015,07,25,13,43,18.30
2015,07,25,13,44,18.30
2015,07,25,13,45,18.40
2015,07,25,13,46,18.40
2015,07,25,13,47,18.40
2015,07,25,13,48,18.40
2015,07,25,13,49,18.40
2015,07,25,13,50,18.40
2015,07,25,13,51,18.50
2015,07,25,13,52,18.50
2015,07,25,13,53,18.50
2015,07,25,13,54,18.60
2015,07,25,13,55,18.60
2015,07,25,13,56,18.60
2015,07,25,13,57,18.60
2015,07,25,13,58,18.60
2015,07,25,13,59,18.60
2015,07,25,14,00,18.60
2015,07,25,14,01,18.50
2015,07,25,14,02,18.40
2015,07,25,14,03,18.40
2015,07,25,14,04,18.40
2015,07,25,14,05,18.40
2015,07,25,14,06,18.40
2015,07,25,14,07,18.40
2015,07,25,14,08,18.50
2015,07,25,14,09,18.50
2015,07,25,14,10,18.50
2015,07,25,14,11,18.60
2015,07,25,14,12,18.60
2015,07,25,14,13,18.60
2015,07,25,14,14,18.60
2015,07,25,14,15,18.60
2015,07,25,14,16,18.60
2015,07,25,14,17,18.50
2015,07,25,14,18,18.50
2015,07,25,14,19,18.40
2015,07,25,14,20,18.40
2015,07,25,14,21,18.40
2015,07,25,14,22,18.30
2015,07,25,14,23,18.30
2015,07,25,14,24,18.30
2015,07,25,14,25,18.40
2015,07,25,14,26,18.40
2015,07,25,14,27,18.40
2015,07,25,14,28,18.50
2015,07,25,14,29,18.50
2015,07,25,14,30,18.50
2015,07,25,14,31,18.60
2015,07,25,14,32,18.60
2015,07,25,14,33,18.60
2015,07,25,14,34,18.60
2015,07,25,14,35,18.60
2015,07,25,14,36,18.60
2015,07,25,14,37,18.60
2015,07,25,14,38,18.60
2015,07,25,14,39,18.60
2015,07,25,14,40,18.60
2015,07,25,14,41,18.60
2015,07,25,14,42,18.60
2015,07,25,14,43,18.70
2015,07,25,14,44,18.70
2015,07,25,14,45,18.70
2015,07,25,14,46,18.70
2015,07,25,14,47,18.70
2015,07,25,14,48,18.70
2015,07,25,14,49,18.70
2015,07,25,14,50,18.70
2015,07,25,14,51,18.80
2015,07,25,14,52,18.80
2015,07,25,14,53,18.80
2015,07,25,14,54,18.90
2015,07,25,14,55,18.90
2015,07,25,14,56,18.90
2015,07,25,14,57,18.90
2015,07,25,14,58,18.90
2015,07,25,14,59,18.90
2015,07,25,15,00,19.00
2015,07,25,15,01,19.00
2015,07,25,15,02,19.00
2015,07,25,15,03,19.00
2015,07,25,15,04,19.00
2015,07,25,15,05,19.10
2015,07,25,15,06,19.10
2015,07,25,15,07,19.10
2015,07,25,15,08,19.20
2015,07,25,15,09,19.10
2015,07,25,15,10,19.10
2015,07,25,15,11,19.00
2015,07,25,15,12,19.00
2015,07,25,15,13,19.00
2015,07,25,15,14,19.10
2015,07,25,15,15,19.10
2015,07,25,15,16,19.00
2015,07,25,15,17,19.00
2015,07,25,15,18,19.00
2015,07,25,15,19,19.00
2015,07,25,15,20,19.00
2015,07,25,15,21,18.90
2015,07,25,15,22,18.90
2015,07,25,15,23,18.90
2015,07,25,15,24,19.00
2015,07,25,15,25,19.00
2015,07,25,15,26,19.00
2015,07,25,15,27,19.00
2015,07,25,15,28,18.90
2015,07,25,15,29,18.90
2015,07,25,15,30,18.90
2015,07,25,15,31,18.80
2015,07,25,15,32,18.80
2015,07,25,15,33,18.90
2015,07,25,15,34,18.90
2015,07,25,15,35,18.90
2015,07,25,15,36,18.90
2015,07,25,15,37,18.80
2015,07,25,15,38,18.80
2015,07,25,15,39,18.70
2015,07,25,15,40,18.70
2015,07,25,15,41,18.60
2015,07,25,15,42,18.60
2015,07,25,15,43,18.60
2015,07,25,15,44,18.60
2015,07,25,15,45,18.60
2015,07,25,15,46,18.60
2015,07,25,15,47,18.60
2015,07,25,15,48,18.50
2015,07,25,15,49,18.40
2015,07,25,15,50,18.40
2015,07,25,15,51,18.30
2015,07,25,15,52,18.20
2015,07,25,15,53,18.20
2015,07,25,15,54,18.20
2015,07,25,15,55,18.10
2015,07,25,15,56,18.10
2015,07,25,15,57,18.00
2015,07,25,15,58,18.00
2015,07,25,15,59,18.00
2015,07,25,16,00,18.00
2015,07,25,16,01,18.00
2015,07,25,16,02,18.00
2015,07,25,16,03,18.00
2015,07,25,16,04,18.00
2015,07,25,16,05,18.00
2015,07,25,16,06,18.10
2015,07,25,16,07,18.10
2015,07,25,16,08,18.10
2015,07,25,16,09,18.10
2015,07,25,16,10,18.10
2015,07,25,16,11,18.10
2015,07,25,16,12,18.10
2015,07,25,16,13,18.10
2015,07,25,16,14,18.10
2015,07,25,16,15,18.20
2015,07,25,16,16,18.20
2015,07,25,16,17,18.20
2015,07,25,16,18,18.30
2015,07,25,16,19,18.30
2015,07,25,16,20,18.40
2015,07,25,16,21,18.40
2015,07,25,16,22,18.40
2015,07,25,16,23,18.40
2015,07,25,16,24,18.40
2015,07,25,16,25,18.30
2015,07,25,16,26,18.30
2015,07,25,16,27,18.30
2015,07,25,16,28,18.30
2015,07,25,16,29,18.30
2015,07,25,16,30,18.30
2015,07,25,16,31,18.30
2015,07,25,16,32,18.30
2015,07,25,16,33,18.30
2015,07,25,16,34,18.20
2015,07,25,16,35,18.20
2015,07,25,16,36,18.20
2015,07,25,16,37,18.30
2015,07,25,16,38,18.30
2015,07,25,16,39,18.40
2015,07,25,16,40,18.40
2015,07,25,16,41,18.40
2015,07,25,16,42,18.50
2015,07,25,16,43,18.60
2015,07,25,16,44,18.60
2015,07,25,16,45,18.70
2015,07,25,16,46,18.80
2015,07,25,16,47,18.90
2015,07,25,16,48,19.00
2015,07,25,16,49,19.10
2015,07,25,16,50,19.10
2015,07,25,16,51,19.10
2015,07,25,16,52,19.10
2015,07,25,16,53,19.10
2015,07,25,16,54,19.20
2015,07,25,16,55,19.20
2015,07,25,16,56,19.20
2015,07,25,16,57,19.20
2015,07,25,16,58,19.10
2015,07,25,16,59,19.10
2015,07,25,17,00,19.10
2015,07,25,17,01,19.20
2015,07,25,17,02,19.10
2015,07,25,17,03,19.10
2015,07,25,17,04,19.10
2015,07,25,17,05,19.00
2015,07,25,17,06,19.10
2015,07,25,17,07,19.10
2015,07,25,17,08,19.10
2015,07,25,17,09,19.00
2015,07,25,17,10,19.10
2015,07,25,17,11,19.10
2015,07,25,17,12,19.10
2015,07,25,17,13,19.10
2015,07,25,17,14,19.10
2015,07,25,17,15,19.10
2015,07,25,17,16,19.10
2015,07,25,17,17,19.10
2015,07,25,17,18,19.10
2015,07,25,17,19,19.10